Simultaneous Nadir Overpasses (SNOs) Predictions

Prediction of SNOs between AQUA and NPP Satellite Orbit:

Table of predicted SNOs for the next 14.0 days since TLE Epoch: 3/16/2017
Index Date (AQUA) Time (AQUA) Lat,Lon (AQUA) SZA (AQUA ) Date (NPP) Time (NPP) Lat,Lon (NPP) SZA (NPP ) Distance(km) Time Diff (sec)
1 03/18/2017 22:38:33 75.90, 79.15 98.28 03/18/2017 22:38:17 75.89, 79.09 98.31 1.69 16
2 03/18/2017 23:27:42 -76.81,-110.22 82.80 03/18/2017 23:28:43 -76.80,-110.32 82.83 2.55 61
3 03/21/2017 14:05:56 -75.12, 25.14 81.90 03/21/2017 14:04:43 -75.11, 25.12 81.83 0.74 73
4 03/21/2017 14:54:57 76.31,-163.70 96.73 03/21/2017 14:55:01 76.31,-163.71 96.73 0.27 4
5 03/24/2017 06:22:19 -75.58, 142.29 83.49 03/24/2017 06:21:26 -75.58, 142.33 83.46 1.17 53
6 03/24/2017
